International Skating Union - Official Site

ISU World Cup Berlin
January 27 - 29, 2017

Draw | Lap Times | Index | World Cup

Referee: Bjørn  PETTERSEN  (NOR)
Starter: Janny  SMEGEN  (NED)
StartTime: EndTime: Air Temp: Ice Temp: Humidity:
16:05 16:49 15.8℃ -5.8℃ 31.1%
Result 3000m Ladies Division A
Rankings as of Jan 29 2017 4:54PM
Rank: No.: Name: Nation: Time: Behind: Points:
1 255 Ireen  Wüst NED NED 4:01.77200m - 19.44 - (19.4)
600m - 49.63 - (30.1)
1000m - 1:20.50 - (30.8)
1400m - 1:51.52 - (31.0)
1800m - 2:22.88 - (31.3)
2200m - 2:55.01 - (32.1)
2600m - 3:28.05 - (33.0)
3000m - 4:01.77 - (33.7)
100
2 215 Martina  Sáblíková CZE CZE 4:02.38200m - 20.27 - (20.2)
600m - 51.41 - (31.1)
1000m - 1:22.88 - (31.4)
1400m - 1:54.80 - (31.9)
1800m - 2:26.56 - (31.7)
2200m - 2:58.63 - (32.0)
2600m - 3:30.39 - (31.7)
3000m - 4:02.38 - (31.9)
0.61 80
3 279 Anna  Yurakova RUS RUS 4:04.64200m - 20.65 - (20.6)
600m - 51.96 - (31.3)
1000m - 1:23.56 - (31.6)
1400m - 1:55.30 - (31.7)
1800m - 2:27.69 - (32.3)
2200m - 2:59.81 - (32.1)
2600m - 3:32.29 - (32.4)
3000m - 4:04.64 - (32.3)
2.87 70
4 248 Marije  Joling NED NED 4:05.56200m - 19.84 - (19.8)
600m - 50.99 - (31.1)
1000m - 1:22.32 - (31.3)
1400m - 1:54.17 - (31.8)
1800m - 2:26.62 - (32.4)
2200m - 2:59.13 - (32.5)
2600m - 3:32.14 - (33.0)
3000m - 4:05.56 - (33.4)
3.79 60
5 244 Antoinette  de Jong NED NED 4:06.20200m - 20.18 - (20.1)
600m - 51.12 - (30.9)
1000m - 1:22.26 - (31.1)
1400m - 1:54.10 - (31.8)
1800m - 2:26.55 - (32.4)
2200m - 2:59.46 - (32.9)
2600m - 3:32.76 - (33.3)
3000m - 4:06.20 - (33.4)
4.43 50
6 273 Olga  Graf RUS RUS 4:06.68200m - 21.12 - (21.1)
600m - 52.85 - (31.7)
1000m - 1:24.53 - (31.6)
1400m - 1:56.28 - (31.7)
1800m - 2:28.19 - (31.9)
2200m - 3:00.40 - (32.2)
2600m - 3:33.37 - (32.9)
3000m - 4:06.68 - (33.3)
4.91 45
7 224 Bente  Kraus GER GER 4:06.70200m - 20.55 - (20.5)
600m - 51.75 - (31.2)
1000m - 1:23.66 - (31.9)
1400m - 1:55.92 - (32.2)
1800m - 2:28.43 - (32.5)
2200m - 3:01.07 - (32.6)
2600m - 3:33.81 - (32.7)
3000m - 4:06.70 - (32.8)
4.93 40
8 254 Melissa  Wijfje NED NED 4:06.75200m - 19.83 - (19.8)
600m - 50.85 - (31.0)
1000m - 1:22.37 - (31.5)
1400m - 1:54.30 - (31.9)
1800m - 2:26.66 - (32.3)
2200m - 2:59.25 - (32.5)
2600m - 3:32.42 - (33.1)
3000m - 4:06.75 - (34.3)
4.98 35
9 226 Claudia  Pechstein GER GER 4:07.23200m - 20.29 - (20.2)
600m - 51.56 - (31.2)
1000m - 1:23.17 - (31.6)
1400m - 1:55.22 - (32.0)
1800m - 2:27.72 - (32.5)
2200m - 3:00.68 - (32.9)
2600m - 3:33.88 - (33.2)
3000m - 4:07.23 - (33.3)
5.46 30
10 204 Marina  Zueva BLR BLR 4:07.56200m - 20.68 - (20.6)
600m - 52.39 - (31.7)
1000m - 1:24.02 - (31.6)
1400m - 1:56.00 - (31.9)
1800m - 2:28.02 - (32.0)
2200m - 3:00.81 - (32.7)
2600m - 3:34.07 - (33.2)
3000m - 4:07.56 - (33.4)
5.79 25
11 205 Ivanie  Blondin CAN CAN 4:08.09200m - 20.17 - (20.1)
600m - 51.00 - (30.8)
1000m - 1:23.08 - (32.0)
1400m - 1:55.16 - (32.0)
1800m - 2:27.55 - (32.3)
2200m - 3:00.36 - (32.8)
2600m - 3:33.89 - (33.5)
3000m - 4:08.09 - (34.2)
6.32 21
12 236 Miho  Takagi JPN JPN 4:08.12200m - 20.66 - (20.6)
600m - 52.31 - (31.6)
1000m - 1:24.54 - (32.2)
1400m - 1:56.92 - (32.3)
1800m - 2:29.28 - (32.3)
2200m - 3:01.53 - (32.2)
2600m - 3:34.43 - (32.9)
3000m - 4:08.12 - (33.6)
6.35 18
13 242 Carlijn  Achtereekte NED NED 4:09.00200m - 19.96 - (19.9)
600m - 51.02 - (31.0)
1000m - 1:22.58 - (31.5)
1400m - 1:54.58 - (32.0)
1800m - 2:27.25 - (32.6)
2200m - 3:00.92 - (33.6)
2600m - 3:35.19 - (34.2)
3000m - 4:09.00 - (33.8)
7.23 16
14 229 Francesca  Lollobrigida ITA ITA 4:09.34200m - 20.16 - (20.1)
600m - 51.09 - (30.9)
1000m - 1:22.88 - (31.7)
1400m - 1:55.23 - (32.3)
1800m - 2:28.38 - (33.1)
2200m - 3:01.62 - (33.2)
2600m - 3:35.54 - (33.9)
3000m - 4:09.34 - (33.8)
7.57 14
15 278 Natalia  Voronina RUS RUS 4:09.81200m - 20.09 - (20.0)
600m - 51.35 - (31.2)
1000m - 1:22.94 - (31.5)
1400m - 1:54.96 - (32.0)
1800m - 2:27.74 - (32.7)
2200m - 3:01.17 - (33.4)
2600m - 3:35.12 - (33.9)
3000m - 4:09.81 - (34.6)
8.04 12
16 202 Jelena  Peeters BEL BEL 4:13.05200m - 20.50 - (20.5)
600m - 52.04 - (31.5)
1000m - 1:24.24 - (32.2)
1400m - 1:56.91 - (32.6)
1800m - 2:30.02 - (33.1)
2200m - 3:03.64 - (33.6)
2600m - 3:38.08 - (34.4)
3000m - 4:13.05 - (34.9)
11.28 10